Location: Hastringsfeld
(50.9620°N, 10.4787°E)
Time: 15:01:25
(UTC+00:00)

ATLAS 5 CENTAUR R/B - Pass Details

Date: 26 September 2023
Orbit: 432 x 1181 km, 63.3° (Epoch: 28 November)

Event Time Altitude Azimuth Distance (km) Brightness Sun altitude
Exits shadow 01:01:39 12° 54° (NE) 1,633 4.4 -34.8°
Drops below altitude 10° 01:02:00 10° 53° (NE) 1,772 4.6 -34.8°
Enters shadow 02:08:53 -61° 230° (SW) 12,020 8.1 -27.5°
